Home > Weather > Juneau > Past weeks

Flag for USA Past Weather in Juneau, Alaska, USA — Yesterday and Last 2 Weeks

Now
61 °F

Light rain. Mostly cloudy.


Feels Like: 61 °F
Forecast: 55 / 61 °F
Wind: 6 mph from West

Location: Juneau International Airport

Current Time: Aug 24, 2016 at 3:32:14 PM

Latest Report: Aug 24, 2016 at 2:53 PM


Visibility: 7 mi

Pressure: 30.57 "Hg

Humidity: 87%

Dew Point: 57 °F

Location of JuneauLocation

Past Weather in Juneau — Graph

°F

Juneau Temperature Yesterday

Maximum temperature yesterday: 62 °F (at 1:53 PM)
Minimum temperature yesterday: 54 °F (at 2:53 AM)
Average temperature yesterday: 57 °F

High & Low Weather Summary for the Past Weeks

 TemperatureHumidityPressure
High68 °F (Aug 21, 3:53 PM)97% (Aug 12, 12:53 AM)30.57 "Hg (Aug 12, 12:53 AM)
Low46 °F (Aug 21, 1:53 AM)53% (Aug 21, 3:53 PM)29.87 "Hg (Aug 13, 8:53 PM)
Average58 °F87%30.13 "Hg
* Reported Aug 9 1:53 PM — Aug 24 1:53 PM, Juneau, Weather by CustomWeather, © 2016

Note: Actual official high and low records may vary slightly from our data, if they occured in-between our weather recording intervals... More about our weather records

Advertising

Juneau Weather History for the Previous 24 Hours

Scroll right to see more
 ConditionsComfort  
Time TempWeatherWind HumidityBarometerVisibility
1:53 PM
Wed, Aug 24
62 °FMore clouds than sun.6 mph86%30.56 "Hg10 mi
12:53 PM63 °FMostly cloudy.9 mph84%30.56 "Hg10 mi
11:53 AM61 °FMostly cloudy.9 mph90%30.57 "Hg10 mi
10:53 AM59 °FMostly cloudy.7 mph93%30.57 "Hg10 mi
10:00 AM58 °FCloudy.7 mph97%30.57 "Hg10 mi
9:53 AM58 °FMore clouds than sun.7 mph93%30.56 "Hg10 mi
8:53 AM58 °FMostly cloudy.7 mph93%30.55 "Hg5 mi
7:53 AM57 °FLight rain. Fog.10 mph96%30.54 "Hg3 mi
6:53 AM57 °FLight rain. Fog.7 mph93%30.53 "Hg5 mi
5:53 AM57 °FLight rain. Fog.7 mph96%30.52 "Hg4 mi
4:53 AM57 °FLight rain. Fog.5 mph96%30.50 "Hg3 mi
3:53 AM58 °FLight rain. Fog.6 mph97%30.50 "Hg2 mi
2:53 AM58 °FLight rain. Fog.9 mph97%30.48 "Hg3 mi
1:53 AM58 °FLight rain. Fog.10 mph97%30.47 "Hg4 mi
12:53 AM58 °FLight rain. Low clouds.10 mph93%30.46 "Hg10 mi
11:53 PM
Tue, Aug 23
58 °FLight rain. Fog.9 mph93%30.46 "Hg4 mi
10:53 PM58 °FLight rain. Fog.10 mph93%30.45 "Hg4 mi
9:53 PM58 °FLight rain. Fog.9 mph93%30.44 "Hg5 mi
8:53 PM58 °FLight rain. Fog.8 mph93%30.43 "Hg4 mi
7:53 PM58 °FLight rain. Fog.10 mph97%30.42 "Hg5 mi
6:53 PM58 °FLight rain. Mostly cloudy.9 mph93%30.42 "Hg8 mi
5:53 PM59 °FMostly cloudy.12 mph87%30.41 "Hg10 mi
4:53 PM61 °FBroken clouds.13 mph83%30.40 "Hg10 mi
3:53 PM61 °FLight rain. Partly sunny.12 mph83%30.39 "Hg10 mi
Weather by CustomWeather, © 2016

See weather overviewHow to use our weather pages